Miscellaneous Local Product
Issued by NWS North Platte, NE

Home | Current Version | Previous Version | Text Only | Print | Product List | Glossary On
Versions: 1 2 3 4 5 6 7 8 9 10 11 12 13 14 15 16 17 18 19 20 21 22 23 24 25 26 27 28 29 30 31 32 33 34 35 36 37 38 39 40 41 42 43 44 45 46 47 48 49 50
848
AXUS43 KLBF 281310
MISLBF


WESTERN AND NORTH CENTRAL NEBRASKA HOURLY WEATHER ROUNDUP
NATIONAL WEATHER SERVICE NORTH PLATTE NE
800 AM CDT FRI JUL 28 2017

NOTE: "FAIR" INDICATES FEW OR NO CLOUDS BELOW 12,000 FEET WITH NO
SIGNIFICANT WEATHER AND/OR OBSTRUCTIONS TO VISIBILITY.

NOTE: STATIONS NOT REPORTING VARIABLES SUCH AS SKY/WEATHER OR
PRESSURE ARE PROVIDED BY RAWS AND APRS NETWORKS AND ARE NOT UNDER
NATIONAL WEATHER SERVICE QUALITY CONTROL.

...OBSERVATIONS IN AND NEAR THE EASTERN PANHANDLE OF NEBRASKA...

CITY           SKY/WX    TMP DP  RH WIND       PRES   REMARKS
PINE RIDGE     MOSUNNY   62  61  96 CALM      30.07R
GORDON         FAIR      62  60  92 SE7       30.07R
CHADRON        SUNNY     63  59  87 N6        30.06R
ALLIANCE       SUNNY     63  61  93 MISG      30.09F
SIDNEY         CLOUDY    65  61  87 SE3       30.14R
CRESCENT LAKE    N/A     63  63  99 CALM        N/A
$$

...OBSERVATIONS IN NORTHERN NEBRASKA AND FAR SOUTHERN SOUTH DAKOTA...

CITY           SKY/WX    TMP DP  RH WIND       PRES   REMARKS
WINNER         CLOUDY    68  64  87 SE7       30.08R
VALENTINE      PTSUNNY   69  60  73 E7        30.09S
THEDFORD       SUNNY     68  64  85 E5        30.11R
AINSWORTH      CLOUDY    66  65  94 E3        30.11R
O`NEILL        PTSUNNY   67  65  93 E5        30.10S
ORD            CLOUDY    67  63  87 E5        30.07S
BROKEN BOW     CLOUDY    67  63  87 SE5       30.09R
HALSEY           N/A     65  62  91 CALM        N/A
BUTTE            N/A     66  62  87 SE7         N/A
CHAMBERS         N/A     67  63  88 CALM        N/A
EWING            N/A     67  65  92 E3          N/A
$$

...OBSERVATIONS IN SOUTHWEST NEBRASKA AND FAR NORTHEAST COLORADO...

CITY           SKY/WX    TMP DP  RH WIND       PRES   REMARKS
HOLYOKE        FAIR      66  63  88 S9        30.10S
IMPERIAL       SUNNY     67  62  84 S10       30.07S
OGALLALA       PTSUNNY   65  64  94 CALM      30.08R
NORTH PLATTE   SUNNY     67  63  87 E7        30.08R
MCCOOK         CLOUDY    67  63  87 S9        30.06F
LEXINGTON      CLOUDY    68  63  84 SE5       30.08R
STAPLETON        N/A     66  62  88 CALM        N/A
GOTHENBURG       N/A     65  60  83 E3          N/A
CALLAWAY         N/A     66  63  91 S7          N/A
$$

...OBSERVATIONS IN CENTRAL LINCOLN COUNTY AREA...

CITY           SKY/WX    TMP DP  RH WIND       PRES   REMARKS
N.P. AIRPORT   SUNNY     67  63  87 E7        30.08R
N.P. DOWNTOWN    N/A     70  63  79 CALM        N/A
N.P. SOUTHEAST   N/A     67  62  83 SE5         N/A
N.P. HILLCREST   N/A     68  63  84 SE8         N/A
$$

...SOME OBSERVATIONS FROM AROUND THE REGION...

CITY           SKY/WX    TMP DP  RH WIND       PRES   REMARKS
DENVER         FOG       64  60  87 W8        30.15  VSB 1/4
LIMON          CLOUDY    63  63 100 S13       30.18S FOG
ASPEN          CLOUDY    53  47  79 S3        30.35R
LARAMIE        SUNNY     54  48  80 S5        30.29R
CASPER         CLOUDY    58  55  90 W7        30.17S
CHEYENNE       FOG       57  56  96 W5        30.22R VSB<1/4
SCOTTSBLUFF    CLOUDY    66  61  84 E6        30.10S
GRAND ISLAND   SUNNY     66  65  96 E5        30.08R FOG
OMAHA          PTSUNNY   68  64  87 N7        30.06R
SIOUX FALLS    CLOUDY    66  63  90 CALM      30.10S
PIERRE         CLOUDY    70  61  73 SE8       30.03S
RAPID CITY     CLOUDY    62  56  80 SW5       30.06R
BISMARCK       MOSUNNY   69  62  78 E6        30.06R
KANSAS CITY    MOSUNNY   73  68  84 NE7       30.01R
HILL CITY      CLOUDY    67  65  93 CALM      30.09R
WICHITA        PTSUNNY   74  69  85 NE9       30.00R
DODGE CITY     CLOUDY    69  66  90 E5        30.08R FOG
OKLAHOMA CITY  CLOUDY    77  75  93 N8        29.95R
DALLAS         CLOUDY    84  69  60 SW10      29.92R
AMARILLO       MOSUNNY   72  68  87 E9        30.10R
$$




USA.gov is the U.S. government's official web portal to all federal, state and local government web resources and services.